DW0307 Weather Reports


Display with metric or nautical units.
time (UTC)temp
F
wind
direction
speed
MPH
gust
MPH
rain 1hr
in
rain 24hr
in
rain mn
in
humidity
%
barometer
mb
20260510103050 61 105 5.0 11.0 0.00 0.00 0.00 58 1015.5
20260510101555 60 19 2.0 9.0 0.00 0.00 0.00 57 1015.7
20260510100043 59 26 3.0 8.0 0.00 0.00 0.00 57 1016.0
20260510094553 58 321 1.0 8.0 0.00 0.00 0.00 60 1016.1
20260510093051 57 325 3.0 7.0 0.00 0.00 0.00 62 1016.4
20260510091551 57 313 3.0 7.0 0.00 0.00 0.00 61 1016.4
20260510090048 58 319 3.0 9.0 0.00 0.00 0.00 60 1016.6
20260510084546 58 194 4.0 11.0 0.00 0.00 0.00 63 1016.7
20260510083043 58 200 6.0 10.0 0.00 0.00 0.00 64 1016.9
20260510081553 57 140 6.0 11.0 0.00 0.00 0.00 63 1017.0
20260510080042 55 76 4.0 9.0 0.00 0.00 0.00 60 1017.1
20260510074549 55 116 5.0 9.0 0.00 0.00 0.00 60 1017.1
20260510073104 54 138 5.0 9.0 0.00 0.00 0.00 62 1017.0
20260510071553 54 115 3.0 10.0 0.00 0.00 0.00 62 1017.2
20260510070051 53 43 5.0 9.0 0.00 0.00 0.00 61 1017.2
20260510064556 53 29 3.0 8.0 0.00 0.00 0.00 61 1017.3
20260510063050 52 35 3.0 10.0 0.00 0.00 0.00 62 1017.3
20260510061550 52 45 5.0 11.0 0.00 0.00 0.00 62 1017.5
20260510060049 52 71 5.0 9.0 0.00 0.00 0.00 64 1017.6
20260510054544 50 79 7.0 10.0 0.00 0.00 0.00 67 1017.7
20260510053042 48 33 5.0 9.0 0.00 0.00 0.00 74 1017.6
20260510051554 46 49 4.0 10.0 0.00 0.00 0.00 80 1017.6
20260510050049 46 82 3.0 6.0 0.00 0.00 0.00 85 1017.6
20260510044552 45 78 2.0 5.0 0.00 0.00 0.00 87 1017.7
20260510043053 45 0 0.0 2.0 0.00 0.00 0.00 88 1017.7
20260510041548 44 105 1.0 3.0 0.00 0.00 0.00 89 1017.7
20260510040050 44 0 0.0 2.0 0.00 0.00 0.00 89 1017.8
20260510034543 44 0 0.0 0.0 0.00 0.00 0.00 89 1017.7
20260510033045 43 0 0.0 0.0 0.00 0.00 0.00 88 1017.7
20260510031553 43 0 0.0 3.0 0.00 0.00 0.00 88 1017.6
20260510030044 43 76 1.0 3.0 0.00 0.00 0.00 88 1017.6
20260510024548 42 0 0.0 2.0 0.00 0.00 0.00 88 1017.6
20260510023050 42 0 0.0 0.0 0.00 0.00 0.00 87 1017.7
20260510021550 41 0 0.0 1.0 0.00 0.00 0.00 87 1017.7
20260510020051 41 55 1.0 3.0 0.00 0.00 0.00 86 1017.8
20260510014550 41 0 0.0 3.0 0.00 0.00 0.00 85 1017.8
20260510013049 42 55 1.0 3.0 0.00 0.00 0.00 85 1017.9
20260510011546 43 55 0.0 2.0 0.00 0.00 0.00 85 1018.0
20260510010044 45 55 1.0 3.0 0.00 0.00 0.00 84 1018.0
20260510004549 45 0 0.0 2.0 0.00 0.00 0.00 84 1018.1
20260510003049 46 0 0.0 3.0 0.00 0.00 0.00 84 1018.1
20260510001552 46 0 0.0 0.0 0.00 0.00 0.00 84 1018.2
20260510000052 46 0 0.0 2.0 0.00 0.00 0.00 84 1018.4
20260509234546 46 54 1.0 4.0 0.00 0.00 0.00 83 1018.4
20260509233048 46 36 2.0 4.0 0.00 0.00 0.00 83 1018.5
20260509231550 46 34 1.0 4.0 0.00 0.00 0.00 83 1018.6
20260509230043 46 63 2.0 4.0 0.00 0.00 0.00 83 1018.6
20260509224557 46 85 0.0 5.0 0.00 0.00 0.00 83 1018.7
20260509223048 46 80 1.0 6.0 0.00 0.00 0.00 83 1018.9
20260509221600 46 78 3.0 6.0 0.00 0.00 0.00 83 1019.0
20260509220048 46 46 4.0 9.0 0.00 0.00 0.00 83 1018.9
20260509214548 46 47 4.0 9.0 0.00 0.00 0.00 83 1019.2
20260509213049 47 46 2.0 8.0 0.00 0.00 0.00 83 1019.4
20260509211546 47 77 4.0 10.0 0.00 0.00 0.00 82 1019.4
20260509210049 47 59 5.0 10.0 0.00 0.00 0.00 82 1019.2
20260509204551 47 67 4.0 11.0 0.00 0.00 0.00 82 1019.2
20260509203046 47 80 5.0 10.0 0.00 0.00 0.00 83 1019.2
20260509201558 47 57 5.0 13.0 0.00 0.00 0.00 82 1019.2
20260509200058 47 65 4.0 12.0 0.00 0.00 0.00 82 1019.2
20260509194545 48 78 6.0 11.0 0.00 0.00 0.00 82 1019.1
20260509193048 48 77 5.0 13.0 0.00 0.00 0.00 82 1019.0
20260509191546 48 48 5.0 13.0 0.00 0.00 0.00 81 1018.9
20260509190103 48 50 7.0 13.0 0.00 0.00 0.00 81 1018.8
20260509184547 48 40 8.0 14.0 0.00 0.04 0.00 81 1018.8
20260509183049 49 56 8.0 15.0 0.00 0.04 0.00 81 1018.5
20260509181548 49 82 9.0 16.0 0.00 0.04 0.00 81 1018.6
20260509180051 49 38 9.0 16.0 0.00 0.04 0.00 81 1018.5
20260509174543 49 58 9.0 16.0 0.00 0.05 0.00 81 1018.4
20260509173049 49 38 11.0 19.0 0.00 0.05 0.00 81 1018.3
20260509171548 50 29 11.0 17.0 0.00 0.05 0.00 81 1018.2
20260509170044 50 47 9.0 16.0 0.00 0.05 0.00 81 1018.0
20260509164551 50 23 11.0 19.0 0.00 0.06 0.00 80 1018.0
20260509163051 50 49 11.0 19.0 0.00 0.06 0.00 80 1018.1
20260509161556 51 49 12.0 18.0 0.00 0.06 0.00 80 1018.0
20260509160053 51 40 11.0 19.0 0.00 0.06 0.00 79 1018.2
20260509154550 52 43 10.0 18.0 0.00 0.06 0.00 78 1018.0
20260509153053 52 57 12.0 19.0 0.00 0.06 0.00 78 1018.0
20260509151548 52 46 11.0 19.0 0.00 0.06 0.00 79 1017.9
20260509150051 52 32 11.0 20.0 0.00 0.06 0.00 78 1018.0
20260509144547 53 45 11.0 19.0 0.00 0.06 0.00 78 1017.8
20260509143056 53 39 12.0 17.0 0.00 0.06 0.00 76 1017.9
20260509141544 53 58 9.0 17.0 0.00 0.06 0.00 77 1018.0
20260509140100 53 42 12.0 17.0 0.00 0.06 0.00 77 1018.0
20260509134623 54 63 10.0 15.0 0.00 0.06 0.00 77 1017.9
20260509133047 54 52 9.0 18.0 0.00 0.06 0.00 77 1018.0
20260509131551 54 44 11.0 17.0 0.00 0.06 0.00 76 1018.0
20260509130045 54 46 11.0 15.0 0.00 0.06 0.00 76 1018.1
20260509124543 54 35 7.0 15.0 0.00 0.06 0.00 76 1018.1
20260509123047 55 42 12.0 17.0 0.00 0.06 0.00 74 1018.3
20260509121550 55 40 10.0 15.0 0.00 0.06 0.00 75 1018.4
20260509120050 54 41 7.0 16.0 0.00 0.06 0.00 77 1018.4
20260509114548 54 45 9.0 16.0 0.00 0.06 0.00 78 1018.4
20260509113048 52 66 8.0 15.0 0.00 0.06 0.00 79 1018.7
20260509111544 53 47 7.0 15.0 0.00 0.06 0.00 78 1018.7
20260509110042 53 26 9.0 14.0 0.00 0.06 0.00 77 1018.6
20260509104548 53 20 8.0 14.0 0.00 0.06 0.00 79 1018.6